Regional Weather Roundup
Issued by NWS Newport/Morehead, NC

Current Version | Previous Version | Graphics & Text | Print | Product List | Glossary Off
Versions: 1 2 3 4 5 6 7 8 9 10 11 12 13 14 15 16 17 18 19 20 21 22 23 24 25 26 27 28 29 30 31 32 33 34 35 36 37 38 39 40 41 42 43 44 45 46 47 48 49 50

000
ASUS42 KMHX 291313
RWRMHX
WEATHER ROUNDUP FOR EASTERN NORTH CAROLINA
NATIONAL WEATHER SERVICE NEWPORT/MOREHEAD CITY NC
900 AM EDT WED MAR 29 2017

NOTE: "FAIR" INDICATES FEW OR NO CLOUDS BELOW 12,000 FEET
WITH NO SIGNIFICANT WEATHER AND/OR OBSTRUCTIONS TO VISIBILITY

NCZ015>017-031-032-045>047-102-103-291400-
NORTH COAST

CITY           SKY/WX    TMP DP  RH WIND       PRES   REMARKS
EDENTON        CLOUDY    59  54  85 NE6       30.07R
ELIZABETH CITY CLOUDY    54  50  86 N16       30.07R
KITTY HAWK     NOT AVBL
MANTEO         CLOUDY    49  48  97 NE14G25   30.06R

$$

NCZ045>047-081-094-103-104-291400-
CENTRAL COAST

CITY           SKY/WX    TMP DP  RH WIND       PRES   REMARKS
FRISCO         CLOUDY    54  51  90 N13G22    30.02R FOG

$$

NCZ095-097-098-100-101-291400-
SOUTHERN COAST

CITY           SKY/WX    TMP DP  RH WIND       PRES   REMARKS
BEAUFORT       MOSUNNY   63  60  90 NE14      30.01R
CEDAR ISLAND   NOT AVBL
JACKSONVILLE   SUNNY     63  60  90 NE9       30.01R
PINEY ISLAND   CLOUDY   N/A N/A N/A NE14      30.03R HAZE
WILMINGTON     MOSUNNY   64  57  78 N7        30.00R


$$

NCZ011>013-027>030-043-044-078>080-089-090>093-098-291400-
COASTAL PLAIN

CITY           SKY/WX    TMP DP  RH WIND       PRES   REMARKS
AHOSKIE          N/A     57  55  92 NE6       30.07R
CLINTON        SUNNY     63  57  82 NE6       30.03S
ELIZABETHTOWN  SUNNY     63  56  78 N3        30.02R
GOLDSBORO      SUNNY     61  61 100 NE10      30.03R
GREENVILLE     SUNNY     59  59 100 NE10      30.06S
HAVELOCK       SUNNY     63  59  87 NE10      30.03R
KENANSVILLE    SUNNY     61  57  88 NE3       30.04R
KINSTON        SUNNY     61  57  88 N12       30.04R
NEW BERN       PTSUNNY   60  59  96 NE10      30.04R
RICHLANDS      SUNNY     62  58  86 NE12      30.03R
ROCKY MOUNT    SUNNY     61  57  87 NE10      30.05R
WASHINGTON     MOSUNNY   57  55  91 NE9       30.05R
WHITEVILLE     SUNNY     64  54  68 NE8       30.01R

$$

AMZ130-135-150-152-154-156-158-170-250-252-270-ANZ085-086-088-633-658-670-291400-
MARINE OBSERVATIONS

STATION/POSITION TIME  TEMP    WIND        PRES    WAVE   SWELL
                       AIR SEA DIR/SP/G            HT/PER HT/PER
                 (UTC) (F)     (DEG/KT/KT) (MB)    (FT/S) (FT/S)
CHESAPEAKE LIGHT NOT AVBL
64 E VA BEACH    1250   48 47   10/ 16/ 19 1016.3    6/ 5   3/ 9
DUCK             1248   49 48   20/ 20/ 23 1017.1
2 E DUCK         1230      51                N/A     4/10   2/11
OREGON INLET     1248           10/ 15/ 21   N/A
13E OREGON INLT  1248      50                N/A     5/10   3/10
HATTERAS CG      1248   53 62   20/ 18/ 23 1016.2
DIAMOND BUOY     1250   59 74   10/ 19/ 23 1015.4    5/10   3/10
CAPE LOOKOUT     1200   63      20/ 11/ 14 1014.9
BEAUFORT LAB     1248   62 62   30/  8/ 12 1015.2
30 SE NEW RVR IN 1208   63      10/ 10/ 12 1015.2
30 SE NEW RVR IN 1243      64                N/A     4/11   2/11
27 SE WRIGHTSVLE 1208   65 71   30/ 12/ 19 1014.3
5 SE WRIGHTSVLE  1208   60 59  360/ 10/ 14 1015.1
225 S CAPE HAT   1250   68 72  320/ 12/ 14 1015.0    6/10   5/10
41 SE CHARLESTON 1250   70 70   30/ 12/ 14 1014.8    4/10   3/10

$$



USA.gov is the U.S. government's official web portal to all federal, state and local government web resources and services.